Stations météo

réclame
Mon MeteoGroup
Floda, Suède (2476): Température de l'air & dewpoint: 12.01.2019 13:00:00 - 18.01.2019 13:00:00 (CET)Floda, Suède (2476): Vitesse du vent & gusts: 12.01.2019 13:00:00 - 18.01.2019 13:00:00 (CET)Floda, Suède (2476): Direction du vent: 12.01.2019 13:00:00 - 18.01.2019 13:00:00 (CET)Floda, Suède (2476): reduced air pressure: 12.01.2019 13:00:00 - 18.01.2019 13:00:00 (CET)Floda, Suède (2476): visibility: 12.01.2019 13:00:00 - 18.01.2019 13:00:00 (CET)Floda, Suède (2476): Quantités de précipitations: 12.01.2019 13:00:00 - 18.01.2019 13:00:00 (CET)
Date & Time tt [°C] td [°C] ff [km/h] ff [knt] fx [km/h] fx [knt] dd ppp [hPa] vv [km] rr [mm]
18.01.2019 13:00:00 - - - - - - - - - -
18.01.2019 12:00:00 -4,8 -10,2 11 6 19 11 W 1005,1 50 0,0
18.01.2019 11:00:00 -4,9 -10,1 10 5 19 10 W 1004,9 50 0,0
18.01.2019 10:00:00 -7,3 -12,0 8 4 16 9 W 1004,8 50 0,0
18.01.2019 09:00:00 -9,2 -13,1 7 4 22 12 W 1004,1 50 0,0
18.01.2019 08:00:00 -7,6 -11,3 13 7 22 12 WNW 1003,5 50 0,0
18.01.2019 07:00:00 -8,4 -11,9 11 6 20 11 WNW 1002,9 50 0,0
18.01.2019 06:00:00 -8,3 -11,6 11 6 20 11 WNW 1002,3 50 0,0
18.01.2019 05:00:00 -8,2 -11,5 14 7 19 10 WNW 1001,8 50 0,0
18.01.2019 04:00:00 -7,9 -11,4 11 6 19 10 WNW 1001,4 50 0,0
18.01.2019 03:00:00 -9,7 -13,1 8 4 14 7 W 1000,9 50 0,0
18.01.2019 02:00:00 -9,2 -12,3 9 5 13 7 WNW 1000,5 50 0,0
18.01.2019 01:00:00 -9,6 -13,0 6 4 13 7 WNW 1000,0 50 0,0
18.01.2019 00:00:00 -9,4 -12,4 9 5 12 6 WNW 999,4 50 0,0
17.01.2019 23:00:00 -9,7 -13,1 6 4 10 6 WNW 999,2 50 0,0
17.01.2019 22:00:00 -9,1 -12,4 5 3 9 5 W 998,5 50 0,0
17.01.2019 21:00:00 -9,5 -12,9 5 3 12 6 WNW 998,2 50 0,0
17.01.2019 20:00:00 -8,6 -12,2 6 3 16 8 W 997,4 50 0,0
17.01.2019 19:00:00 -7,2 -10,5 7 4 16 9 WNW 996,6 50 0,0
17.01.2019 18:00:00 -5,5 -8,4 8 5 19 11 NW 995,8 50 0,0
17.01.2019 17:00:00 -3,8 -7,8 8 4 22 12 NW 994,6 50 0,0
17.01.2019 16:00:00 -3,0 -6,8 11 6 22 12 NNW 993,6 50 0,0
17.01.2019 15:00:00 -2,7 -6,2 11 6 21 12 NW 992,2 50 0,0
17.01.2019 14:00:00 -2,9 -6,2 11 6 26 14 NW 991,3 50 0,0
17.01.2019 13:00:00 -3,2 -6,5 12 6 26 14 NW 990,1 50 0,0
17.01.2019 12:00:00 -4,0 -6,9 14 7 21 11 WNW 989,2 50 0,0
17.01.2019 11:00:00 -4,3 -7,2 13 7 23 13 WNW 988,2 50 0,0
17.01.2019 10:00:00 -5,0 -7,8 11 6 26 14 WNW 987,3 50 0,0
17.01.2019 09:00:00 -5,4 -8,1 18 10 32 17 WNW 986,1 50 0,0
17.01.2019 08:00:00 -5,6 -8,2 20 11 32 17 WNW 984,8 31 0,0
17.01.2019 07:00:00 -5,2 -8,3 18 10 31 17 WNW 983,5 50 0,0
17.01.2019 06:00:00 -5,2 -8,1 18 10 29 16 WNW 983,0 50 0,0
17.01.2019 05:00:00 -3,9 -6,5 17 9 35 19 WNW 982,7 50 0,0
17.01.2019 04:00:00 -2,6 -5,4 21 11 35 19 WNW 982,1 50 0,0
17.01.2019 03:00:00 -0,4 -2,8 20 11 35 19 WNW 981,4 50 0,0
17.01.2019 02:00:00 0,6 -1,6 21 11 35 19 WNW 980,9 50 0,0
17.01.2019 01:00:00 1,9 -0,4 14 7 34 19 WNW 980,5 10 0,1
17.01.2019 00:00:00 3,3 1,1 18 10 25 14 SW 980,2 50 0,0
16.01.2019 23:00:00 3,8 1,5 14 8 25 14 SW 980,6 50 0,1
16.01.2019 22:00:00 3,6 2,1 14 8 24 13 SW 981,1 10 0,9
16.01.2019 21:00:00 4,0 2,4 14 8 25 13 SW 981,4 9 0,9
16.01.2019 20:00:00 3,6 2,0 12 7 25 13 SSW 981,8 9 0,3
16.01.2019 19:00:00 3,0 1,7 15 8 24 13 SSW 982,8 5 0,1
16.01.2019 18:00:00 1,8 0,6 13 7 23 13 SSW 983,9 4,4 0,1
16.01.2019 17:00:00 0,7 -0,5 11 6 29 16 SSE 985,3 9 0,2
16.01.2019 16:00:00 -0,2 -1,2 12 7 29 16 SE 987,1 3,0 0,9
16.01.2019 15:00:00 -1,5 -2,6 14 8 23 12 SE 988,8 0,7 2,1
16.01.2019 14:00:00 -2,6 -4,0 12 6 21 11 ESE 990,9 1,2 0,9
16.01.2019 13:00:00 -3,9 -5,6 11 6 18 10 ESE 993,2 2,1 0,3
16.01.2019 12:00:00 -5,3 -7,4 5 3 9 5 ESE 995,3 25 0,0
16.01.2019 11:00:00 -7,1 -9,5 4 2 9 5 ESE 996,6 22 0,0
16.01.2019 10:00:00 -8,4 -10,8 6 3 8 4 ESE 997,5 17 0,0
16.01.2019 09:00:00 -8,9 -11,4 4 2 5 3 E 998,2 12 0,0
16.01.2019 08:00:00 -8,8 -11,8 0 0 5 3 N 998,7 7 0,0
16.01.2019 07:00:00 -8,9 -11,6 0 0 4 2 N 998,5 8 0,0
16.01.2019 06:00:00 -8,4 -10,6 0 0 8 4 N 998,7 - 0,0
16.01.2019 05:00:00 -7,9 -10,7 3 2 9 5 W 999,0 - 0,0
16.01.2019 04:00:00 -8,1 -10,6 4 2 9 5 NW 998,8 - 0,0
16.01.2019 03:00:00 -10,1 -13,4 0 0 6 3 N 998,7 - 0,0
16.01.2019 02:00:00 -8,6 -10,7 0 0 6 3 N 998,1 3,1 0,0
16.01.2019 01:00:00 -7,6 -10,3 0 0 7 4 N 997,5 10 0,0
16.01.2019 00:00:00 -6,5 -9,9 3 2 7 4 NW 997,1 35 0,0
15.01.2019 23:00:00 -6,7 -9,9 5 3 7 4 W 996,6 50 0,0
15.01.2019 22:00:00 -6,1 -10,1 2 1 5 3 WNW 996,2 50 0,0
15.01.2019 21:00:00 -6,8 -10,7 0 0 5 3 N 995,5 48 0,0
15.01.2019 20:00:00 -6,3 -10,7 0 0 4 2 N 994,9 44 0,0
15.01.2019 19:00:00 -5,1 -10,1 0 0 7 4 N 994,6 50 0,0
15.01.2019 18:00:00 -4,5 -10,1 4 2 7 4 W 994,4 50 0,0
15.01.2019 17:00:00 -4,6 -9,2 2 1 5 3 W 994,5 50 0,0
15.01.2019 16:00:00 -4,3 -9,9 0 0 10 5 N 994,6 50 0,0
15.01.2019 15:00:00 -4,3 -10,7 3 2 12 7 WNW 994,8 50 0,0
15.01.2019 14:00:00 -3,7 -9,9 5 3 17 9 WSW 995,0 50 0,0
15.01.2019 13:00:00 -3,4 -9,8 9 5 19 10 W 996,1 50 0,0
15.01.2019 12:00:00 -3,6 -9,6 10 5 19 10 WNW 996,2 50 0,0
15.01.2019 11:00:00 -4,0 -9,8 11 6 19 10 WNW 996,8 44 0,0
15.01.2019 10:00:00 -5,0 -10,4 10 6 20 11 WNW 996,8 50 0,0
15.01.2019 09:00:00 -4,4 -9,8 14 7 20 11 WNW 997,2 50 0,0
15.01.2019 08:00:00 -4,9 -10,7 9 5 29 16 W 996,8 50 0,0
15.01.2019 07:00:00 -3,4 -9,6 11 6 42 23 WNW 996,1 50 0,0
15.01.2019 06:00:00 -2,8 -8,7 20 11 42 23 WNW 995,6 50 0,0
15.01.2019 05:00:00 -2,4 -8,1 26 14 45 24 WNW 994,7 50 0,0
15.01.2019 04:00:00 -2,1 -8,0 25 14 48 26 WNW 994,1 50 0,0
15.01.2019 03:00:00 -1,7 -8,4 27 15 48 26 NW 993,7 50 0,0
15.01.2019 02:00:00 -1,9 -8,6 29 16 47 26 WNW 992,9 50 0,0
15.01.2019 01:00:00 -1,8 -9,6 29 16 53 29 WNW 992,4 50 0,0
15.01.2019 00:00:00 -1,5 -9,6 34 18 53 29 NW 991,7 50 0,0
14.01.2019 23:00:00 -1,6 -9,2 29 16 54 29 WNW 991,5 50 0,0
14.01.2019 22:00:00 -1,6 -8,4 29 16 55 30 WNW 990,8 50 0,0
14.01.2019 21:00:00 -1,1 -6,6 31 17 55 30 WNW 989,8 43 0,0
14.01.2019 20:00:00 -1,7 -6,8 22 12 40 22 WNW 989,4 50 0,0
14.01.2019 19:00:00 -2,3 -8,0 16 9 41 22 WNW 989,2 50 0,0
14.01.2019 18:00:00 -1,6 -7,5 29 15 41 22 WNW 988,8 50 0,0
14.01.2019 17:00:00 -2,4 -6,9 18 10 38 20 WNW 988,1 50 0,0
14.01.2019 16:00:00 -1,9 -6,5 24 13 38 20 WNW 986,9 50 0,0
14.01.2019 15:00:00 -2,1 -7,8 19 10 37 20 WNW 985,3 50 0,0
14.01.2019 14:00:00 -2,6 -8,9 22 12 40 21 WNW 984,3 50 0,0
14.01.2019 13:00:00 -3,0 -10,2 18 10 41 22 WNW 983,8 50 0,0
14.01.2019 12:00:00 -3,3 -10,8 24 13 41 22 W 983,6 50 0,0
14.01.2019 11:00:00 -4,2 -11,4 19 10 31 17 W 983,6 50 0,0
14.01.2019 10:00:00 -5,1 -11,5 16 8 28 15 WNW 983,9 50 0,0
14.01.2019 09:00:00 -6,0 -11,7 16 8 30 16 WNW 984,0 50 0,0
14.01.2019 08:00:00 -5,7 -11,2 20 11 30 16 WNW 983,2 50 0,0
14.01.2019 07:00:00 -6,3 -11,4 16 9 29 16 WNW 982,7 50 0,0
14.01.2019 06:00:00 -6,0 -10,7 18 10 32 18 WNW 982,4 50 0,0
14.01.2019 05:00:00 -6,4 -11,0 16 9 32 17 NW 981,8 50 0,0
14.01.2019 04:00:00 -5,6 -10,2 19 11 32 17 WNW 981,2 50 0,0
14.01.2019 03:00:00 -5,4 -10,0 21 11 29 16 WNW 980,4 50 0,0
14.01.2019 02:00:00 -5,4 -9,5 17 9 26 14 WNW 980,0 50 0,0
14.01.2019 01:00:00 -4,8 -8,9 16 9 26 14 WNW 979,5 50 0,0
14.01.2019 00:00:00 -3,8 -7,4 16 9 26 14 WNW 978,9 50 0,0
13.01.2019 23:00:00 -3,4 -6,4 14 8 23 12 WNW 978,3 50 0,0
13.01.2019 22:00:00 -2,6 -5,1 12 7 20 11 WNW 977,7 36 0,0
13.01.2019 21:00:00 -1,9 -4,2 11 6 20 11 WNW 977,2 31 0,0
13.01.2019 20:00:00 -1,9 -3,8 10 5 14 7 NW 976,5 2,1 0,1
13.01.2019 19:00:00 -2,6 -5,2 4 2 7 4 NW 975,9 7 0,1
13.01.2019 18:00:00 -2,2 -4,7 0 0 6 4 N 975,9 1,8 0,4
13.01.2019 17:00:00 -2,3 -4,8 2 1 8 4 SE 976,0 8 0,0
13.01.2019 16:00:00 -2,4 -4,4 4 2 8 5 ESE 976,6 5 0,0
13.01.2019 15:00:00 -2,4 -4,4 5 3 10 5 ESE 977,5 3,1 0,0
13.01.2019 14:00:00 -2,3 -4,5 5 3 10 5 SE 978,5 2,9 0,0
13.01.2019 13:00:00 -2,4 -4,6 5 3 9 5 SSE 979,9 5 0,3
13.01.2019 12:00:00 -3,0 -5,2 4 2 11 6 SSE 981,5 8 0,0
13.01.2019 11:00:00 -3,6 -5,9 4 2 9 5 SSE 983,3 10 0,0
13.01.2019 10:00:00 -4,3 -6,4 3 2 9 5 SE 985,0 9 0,0
13.01.2019 09:00:00 -4,9 -6,9 4 2 9 5 SSE 986,4 4,0 0,0
13.01.2019 08:00:00 -5,7 -7,5 6 3 9 5 SSW 988,2 6 0,0
13.01.2019 07:00:00 -8,0 -11,5 0 0 4 2 N 989,4 33 0,0
13.01.2019 06:00:00 -8,6 -11,3 0 0 3 1 N 990,2 34 0,0
13.01.2019 05:00:00 -8,6 -12,4 0 0 4 2 N 991,3 32 0,0
13.01.2019 04:00:00 -7,7 -10,2 0 0 4 2 N 992,3 31 0,0
13.01.2019 03:00:00 -7,5 -10,2 0 0 5 3 N 993,5 30 0,0
13.01.2019 02:00:00 -7,2 -10,2 0 0 5 3 N 993,9 30 0,0
13.01.2019 01:00:00 -6,7 -9,9 0 0 4 2 N 994,7 37 0,0
13.01.2019 00:00:00 -7,1 -10,4 0 0 3 2 N 995,1 34 0,0
12.01.2019 23:00:00 -6,4 -9,8 0 0 3 1 N 995,4 36 0,0
12.01.2019 22:00:00 -5,4 -8,8 0 0 3 1 N 995,7 28 0,0
12.01.2019 21:00:00 -4,2 -7,8 0 0 3 1 N 996,2 41 0,0
12.01.2019 20:00:00 -3,6 -7,0 0 0 0 0 N 996,7 42 0,0
12.01.2019 19:00:00 -3,8 -7,8 0 0 1 0 N 996,8 48 0,0
12.01.2019 18:00:00 -4,0 -7,9 0 0 2 1 N 996,8 47 0,0
12.01.2019 17:00:00 -3,3 -7,3 0 0 3 2 N 997,3 50 0,0
12.01.2019 16:00:00 -3,1 -7,4 0 0 3 2 N 997,5 50 0,0
12.01.2019 15:00:00 -2,0 -6,9 0 0 2 1 N 998,0 47 0,0
12.01.2019 14:00:00 -0,4 -7,4 0 0 3 2 N 998,6 42 0,0
12.01.2019 13:00:00 -1,3 -7,2 0 0 7 4 N 999,4 50 0,0

tt = Température de l'air
td = dewpoint
ff = Vitesse du vent
fx = gusts
dd = Direction du vent
ppp = reduced air pressure
vv = visibility
rr = Quantités de précipitations

stations d'obs. à proximité